Time,TemperatureF,DewpointF,PressureIn,WindDirection,WindDirectionDegrees,WindSpeedMPH,WindSpeedGustMPH,Humidity,HourlyPrecipIn,Conditions,Clouds,dailyrainin,SolarRadiationWatts/m^2,SoftwareType,DateUTC
2013-01-14 00:06:00,50.9,49.0,29.98,WSW,243,10.0,13.0,94,0.00,,,0.00,0,weatherlink.com 1.10,2013-01-14 05:06:00,
2013-01-14 00:21:00,51.2,49.0,29.97,WSW,244,8.0,17.0,93,0.00,,,0.00,0,weatherlink.com 1.10,2013-01-14 05:21:00,
2013-01-14 00:36:00,51.5,50.0,29.97,WSW,249,8.0,14.0,94,0.00,,,0.00,0,weatherlink.com 1.10,2013-01-14 05:36:00,
2013-01-14 00:51:00,51.6,50.0,29.96,WSW,256,8.0,16.0,93,0.00,,,0.00,0,weatherlink.com 1.10,2013-01-14 05:51:00,
2013-01-14 01:06:00,51.7,50.0,29.96,WSW,238,9.0,14.0,93,0.00,,,0.00,0,weatherlink.com 1.10,2013-01-14 06:06:00,
2013-01-14 01:21:00,51.7,50.0,29.96,WSW,240,4.0,15.0,93,0.00,,,0.00,0,weatherlink.com 1.10,2013-01-14 06:21:00,
2013-01-14 01:38:00,51.6,50.0,29.96,SW,233,8.0,12.0,93,0.00,,,0.00,0,weatherlink.com 1.10,2013-01-14 06:38:00,
2013-01-14 01:51:00,51.5,50.0,29.97,SW,232,9.0,13.0,93,0.00,,,0.00,0,weatherlink.com 1.10,2013-01-14 06:51:00,
2013-01-14 02:06:00,51.5,50.0,29.97,SW,232,10.0,13.0,93,0.00,,,0.00,0,weatherlink.com 1.10,2013-01-14 07:06:00,
2013-01-14 02:21:00,51.5,50.0,29.96,WSW,241,3.0,13.0,93,0.00,,,0.00,0,weatherlink.com 1.10,2013-01-14 07:21:00,
2013-01-14 02:36:00,51.1,49.0,29.97,WSW,245,4.0,10.0,93,0.00,,,0.00,0,weatherlink.com 1.10,2013-01-14 07:36:00,
2013-01-14 02:51:00,51.2,50.0,29.96,SW,235,3.0,12.0,94,0.00,,,0.00,0,weatherlink.com 1.10,2013-01-14 07:51:00,
2013-01-14 03:06:00,51.3,50.0,29.95,WSW,240,2.0,10.0,94,0.00,,,0.00,0,weatherlink.com 1.10,2013-01-14 08:06:00,
2013-01-14 03:22:00,51.4,50.0,29.95,WSW,241,4.0,12.0,94,0.00,,,0.00,0,weatherlink.com 1.10,2013-01-14 08:22:00,
2013-01-14 03:37:00,51.7,50.0,29.95,WSW,238,10.0,11.0,95,0.00,,,0.00,0,weatherlink.com 1.10,2013-01-14 08:37:00,
2013-01-14 04:07:00,51.5,50.0,29.93,WSW,238,10.0,15.0,95,0.00,,,0.00,0,weatherlink.com 1.10,2013-01-14 09:07:00,
2013-01-14 04:22:00,51.5,50.0,29.93,SW,232,8.0,14.0,95,0.00,,,0.00,0,weatherlink.com 1.10,2013-01-14 09:22:00,
2013-01-14 04:37:00,51.7,50.0,29.93,SW,233,10.0,17.0,95,0.00,,,0.00,0,weatherlink.com 1.10,2013-01-14 09:37:00,
2013-01-14 04:52:00,51.9,51.0,29.93,WSW,252,14.0,19.0,95,0.00,,,0.00,0,weatherlink.com 1.10,2013-01-14 09:52:00,
2013-01-14 05:08:00,51.9,51.0,29.93,SW,234,11.0,15.0,95,0.00,,,0.00,0,weatherlink.com 1.10,2013-01-14 10:08:00,
2013-01-14 05:22:00,51.9,51.0,29.93,WSW,242,10.0,15.0,95,0.00,,,0.00,0,weatherlink.com 1.10,2013-01-14 10:22:00,
2013-01-14 05:37:00,52.1,51.0,29.93,SW,223,10.0,14.0,94,0.00,,,0.00,0,weatherlink.com 1.10,2013-01-14 10:37:00,
2013-01-14 05:52:00,52.0,50.0,29.91,SW,228,7.0,16.0,94,0.00,,,0.00,0,weatherlink.com 1.10,2013-01-14 10:52:00,
2013-01-14 06:07:00,51.9,50.0,29.92,SW,234,12.0,14.0,93,0.00,,,0.00,0,weatherlink.com 1.10,2013-01-14 11:07:00,
2013-01-14 06:22:00,52.1,51.0,29.93,WSW,254,6.0,14.0,94,0.00,,,0.00,0,weatherlink.com 1.10,2013-01-14 11:22:00,
2013-01-14 06:37:00,52.3,50.0,29.90,SW,222,6.0,14.0,93,0.00,,,0.00,0,weatherlink.com 1.10,2013-01-14 11:37:00,
2013-01-14 06:52:00,52.0,50.0,29.91,WSW,246,1.0,13.0,93,0.00,,,0.00,0,weatherlink.com 1.10,2013-01-14 11:52:00,
2013-01-14 07:07:00,51.9,50.0,29.89,SW,219,11.0,15.0,93,0.00,,,0.00,0,weatherlink.com 1.10,2013-01-14 12:07:00,
2013-01-14 07:22:00,51.6,50.0,29.86,SW,217,18.0,22.0,93,0.00,,,0.00,7,weatherlink.com 1.10,2013-01-14 12:22:00,
2013-01-14 07:38:00,51.8,50.0,29.84,SSW,194,14.0,22.0,94,0.00,,,0.00,7,weatherlink.com 1.10,2013-01-14 12:38:00,
2013-01-14 07:52:00,52.1,51.0,29.90,WNW,285,8.0,20.0,94,0.00,,,0.00,0,weatherlink.com 1.10,2013-01-14 12:52:00,
2013-01-14 08:22:00,54.1,53.0,29.94,West,271,10.0,11.0,94,0.00,,,0.00,7,weatherlink.com 1.10,2013-01-14 13:22:00,
2013-01-14 08:37:00,54.2,53.0,29.95,West,280,7.0,11.0,94,0.00,,,0.00,11,weatherlink.com 1.10,2013-01-14 13:37:00,
2013-01-14 08:52:00,54.4,53.0,29.95,WSW,256,8.0,9.0,93,0.00,,,0.00,18,weatherlink.com 1.10,2013-01-14 13:52:00,
2013-01-14 09:22:00,55.0,53.0,29.97,WSW,246,9.0,14.0,93,0.00,,,0.00,40,weatherlink.com 1.10,2013-01-14 14:22:00,
2013-01-14 09:37:00,55.1,53.0,29.97,WSW,255,5.0,13.0,92,0.00,,,0.00,49,weatherlink.com 1.10,2013-01-14 14:37:00,
2013-01-14 09:52:00,55.3,53.0,29.98,West,259,5.0,14.0,92,0.00,,,0.00,44,weatherlink.com 1.10,2013-01-14 14:52:00,
2013-01-14 10:07:00,55.4,53.0,29.99,WSW,251,4.0,12.0,91,0.00,,,0.00,63,weatherlink.com 1.10,2013-01-14 15:07:00,
2013-01-14 10:22:00,55.6,53.0,29.98,WSW,249,3.0,11.0,91,0.00,,,0.00,90,weatherlink.com 1.10,2013-01-14 15:22:00,
2013-01-14 10:38:00,56.0,53.0,29.98,WSW,250,1.0,13.0,90,0.00,,,0.00,67,weatherlink.com 1.10,2013-01-14 15:38:00,
2013-01-14 10:53:00,56.4,53.0,29.98,West,273,6.0,14.0,89,0.00,,,0.00,125,weatherlink.com 1.10,2013-01-14 15:53:00,
2013-01-14 11:08:00,56.8,53.0,29.98,WSW,246,6.0,14.0,87,0.00,,,0.00,125,weatherlink.com 1.10,2013-01-14 16:08:00,
2013-01-14 11:23:00,57.2,53.0,29.98,West,260,3.0,13.0,86,0.00,,,0.00,109,weatherlink.com 1.10,2013-01-14 16:23:00,
2013-01-14 11:38:00,57.7,53.0,29.97,WSW,255,7.0,15.0,84,0.00,,,0.00,118,weatherlink.com 1.10,2013-01-14 16:38:00,
2013-01-14 11:53:00,59.0,54.0,29.97,WSW,248,1.0,11.0,82,0.00,,,0.00,158,weatherlink.com 1.10,2013-01-14 16:53:00,
2013-01-14 12:08:00,59.3,52.0,29.97,West,263,1.0,16.0,77,0.00,,,0.00,91,weatherlink.com 1.10,2013-01-14 17:08:00,
2013-01-14 12:23:00,58.9,52.0,29.97,West,278,1.0,10.0,77,0.00,,,0.00,62,weatherlink.com 1.10,2013-01-14 17:23:00,
2013-01-14 12:38:00,58.9,51.0,29.95,West,264,2.0,10.0,76,0.00,,,0.00,47,weatherlink.com 1.10,2013-01-14 17:38:00,
2013-01-14 12:53:00,59.7,51.0,29.95,West,268,2.0,7.0,74,0.00,,,0.00,37,weatherlink.com 1.10,2013-01-14 17:53:00,
2013-01-14 13:08:00,60.3,50.0,29.96,West,267,3.0,13.0,70,0.00,,,0.00,30,weatherlink.com 1.10,2013-01-14 18:08:00,
2013-01-14 13:23:00,60.6,50.0,29.96,WNW,287,8.0,15.0,67,0.00,,,0.00,28,weatherlink.com 1.10,2013-01-14 18:23:00,
2013-01-14 13:38:00,60.9,49.0,29.97,WNW,283,9.0,14.0,65,0.00,,,0.00,26,weatherlink.com 1.10,2013-01-14 18:38:00,
2013-01-14 13:53:00,61.1,48.0,29.98,West,274,8.0,14.0,63,0.00,,,0.00,26,weatherlink.com 1.10,2013-01-14 18:53:00,
2013-01-14 14:08:00,60.8,48.0,30.00,West,279,5.0,15.0,63,0.00,,,0.00,26,weatherlink.com 1.10,2013-01-14 19:08:00,
2013-01-14 14:23:00,60.9,46.0,30.00,WNW,297,6.0,18.0,58,0.00,,,0.00,25,weatherlink.com 1.10,2013-01-14 19:23:00,
2013-01-14 14:38:00,60.6,43.0,30.00,WNW,289,4.0,18.0,53,0.00,,,0.00,23,weatherlink.com 1.10,2013-01-14 19:38:00,
2013-01-14 14:53:00,60.2,42.0,30.02,West,278,11.0,18.0,52,0.00,,,0.00,16,weatherlink.com 1.10,2013-01-14 19:53:00,
2013-01-14 15:08:00,59.2,40.0,30.04,WNW,283,5.0,19.0,49,0.00,,,0.00,23,weatherlink.com 1.10,2013-01-14 20:08:00,
2013-01-14 15:23:00,58.6,39.0,30.04,West,262,7.0,15.0,49,0.00,,,0.00,28,weatherlink.com 1.10,2013-01-14 20:23:00,
2013-01-14 15:38:00,58.0,40.0,30.04,WNW,296,4.0,12.0,51,0.00,,,0.00,18,weatherlink.com 1.10,2013-01-14 20:38:00,
2013-01-14 15:53:00,57.2,39.0,30.06,West,279,9.0,13.0,52,0.00,,,0.00,30,weatherlink.com 1.10,2013-01-14 20:53:00,
2013-01-14 16:08:00,56.5,38.0,30.07,NW,306,11.0,16.0,51,0.00,,,0.00,11,weatherlink.com 1.10,2013-01-14 21:08:00,
2013-01-14 16:23:00,55.9,38.0,30.07,West,279,3.0,15.0,52,0.00,,,0.00,0,weatherlink.com 1.10,2013-01-14 21:23:00,
2013-01-14 16:38:00,55.0,37.0,30.08,NW,309,5.0,15.0,51,0.00,,,0.00,0,weatherlink.com 1.10,2013-01-14 21:38:00,
2013-01-14 16:53:00,54.2,38.0,30.08,WNW,303,4.0,7.0,54,0.00,,,0.00,0,weatherlink.com 1.10,2013-01-14 21:53:00,
2013-01-14 17:08:00,53.5,38.0,30.09,WNW,302,6.0,8.0,56,0.00,,,0.00,0,weatherlink.com 1.10,2013-01-14 22:08:00,
2013-01-14 17:23:00,52.8,37.0,30.10,WNW,289,5.0,7.0,56,0.00,,,0.00,0,weatherlink.com 1.10,2013-01-14 22:23:00,
2013-01-14 17:38:00,52.2,37.0,30.11,West,267,3.0,7.0,57,0.00,,,0.00,0,weatherlink.com 1.10,2013-01-14 22:38:00,
2013-01-14 17:53:00,51.4,37.0,30.11,NW,306,1.0,7.0,58,0.00,,,0.00,0,weatherlink.com 1.10,2013-01-14 22:53:00,
2013-01-14 18:08:00,50.9,37.0,30.10,NW,304,1.0,5.0,59,0.00,,,0.00,0,weatherlink.com 1.10,2013-01-14 23:08:00,
2013-01-14 18:23:00,50.3,37.0,30.10,NW,308,3.0,7.0,60,0.00,,,0.00,0,weatherlink.com 1.10,2013-01-14 23:23:00,
2013-01-14 18:38:00,49.9,36.0,30.11,NW,306,1.0,5.0,60,0.00,,,0.00,0,weatherlink.com 1.10,2013-01-14 23:38:00,
2013-01-14 18:53:00,49.5,36.0,30.13,WNW,301,2.0,7.0,61,0.00,,,0.00,0,weatherlink.com 1.10,2013-01-14 23:53:00,
2013-01-14 19:08:00,49.2,37.0,30.13,NW,307,1.0,6.0,62,0.00,,,0.00,0,weatherlink.com 1.10,2013-01-15 00:08:00,
2013-01-14 19:24:00,48.8,36.0,30.14,NW,311,2.0,5.0,62,0.00,,,0.00,0,weatherlink.com 1.10,2013-01-15 00:24:00,
2013-01-14 19:40:00,48.5,36.0,30.14,NW,317,3.0,9.0,62,0.00,,,0.00,0,weatherlink.com 1.10,2013-01-15 00:40:00,
2013-01-14 19:54:00,48.3,35.0,30.14,NW,321,1.0,6.0,60,0.00,,,0.00,0,weatherlink.com 1.10,2013-01-15 00:54:00,
2013-01-14 20:09:00,48.2,30.0,30.15,NW,308,4.0,15.0,50,0.00,,,0.00,0,weatherlink.com 1.10,2013-01-15 01:09:00,
2013-01-14 20:24:00,47.9,30.0,30.17,NNW,340,3.0,15.0,51,0.00,,,0.00,0,weatherlink.com 1.10,2013-01-15 01:24:00,
2013-01-14 20:39:00,47.5,30.0,30.17,NNW,340,8.0,16.0,51,0.00,,,0.00,0,weatherlink.com 1.10,2013-01-15 01:39:00,
2013-01-14 20:54:00,47.2,30.0,30.18,NNE,13,8.0,14.0,52,0.00,,,0.00,0,weatherlink.com 1.10,2013-01-15 01:54:00,
2013-01-14 21:09:00,46.8,30.0,30.17,NW,320,3.0,14.0,53,0.00,,,0.00,0,weatherlink.com 1.10,2013-01-15 02:09:00,
2013-01-14 21:24:00,46.3,30.0,30.18,NW,311,2.0,16.0,54,0.00,,,0.00,0,weatherlink.com 1.10,2013-01-15 02:24:00,
2013-01-14 21:39:00,45.8,30.0,30.17,NW,326,4.0,13.0,55,0.00,,,0.00,0,weatherlink.com 1.10,2013-01-15 02:39:00,
2013-01-14 21:54:00,45.5,30.0,30.17,NW,325,3.0,11.0,55,0.00,,,0.00,0,weatherlink.com 1.10,2013-01-15 02:54:00,
2013-01-14 22:09:00,45.2,30.0,30.18,NW,319,1.0,14.0,56,0.00,,,0.00,0,weatherlink.com 1.10,2013-01-15 03:09:00,
2013-01-14 22:24:00,45.1,30.0,30.19,NNW,335,0.0,11.0,57,0.00,,,0.00,0,weatherlink.com 1.10,2013-01-15 03:24:00,
2013-01-14 22:39:00,44.8,30.0,30.20,NW,319,4.0,15.0,57,0.00,,,0.00,0,weatherlink.com 1.10,2013-01-15 03:39:00,
2013-01-14 22:54:00,44.4,30.0,30.21,NW,319,6.0,14.0,57,0.00,,,0.00,0,weatherlink.com 1.10,2013-01-15 03:54:00,
2013-01-14 23:09:00,44.2,30.0,30.22,WNW,302,2.0,19.0,57,0.00,,,0.00,0,weatherlink.com 1.10,2013-01-15 04:09:00,
2013-01-14 23:24:00,43.9,29.0,30.23,NNW,333,3.0,11.0,57,0.00,,,0.00,0,weatherlink.com 1.10,2013-01-15 04:24:00,
2013-01-14 23:39:00,43.7,29.0,30.23,NNW,345,1.0,9.0,57,0.00,,,0.00,0,weatherlink.com 1.10,2013-01-15 04:39:00,
2013-01-14 23:54:00,43.3,29.0,30.25,NW,311,6.0,11.0,57,0.00,,,0.00,0,weatherlink.com 1.10,2013-01-15 04:54:00,